Location: Aalen
(48.8330°N, 10.1000°E)
Time: 20:40:25
(UTC+02:00)

Transit 2A - Pass Details

Date: 04 August 2021
Orbit: 594 x 964 km, 66.7° (Epoch: 26 September)

Event Time Altitude Azimuth Distance (km) Brightness Sun altitude
Rises 10:43:37 0° 304° (NW) 3,005 8.6 44.4°
Reaches altitude 10° 10:48:25 10° 348° (NNW) 2,198 8.2 45.1°
Maximum altitude 10:49:06 10° 356° (N) 2,197 8.2 45.2°
Drops below altitude 10° 10:49:48 10° 4° (N) 2,231 8.3 45.3°
Sets 10:54:59 0° 46° (NE) 3,285 9.4 46.0°
